Погода в Атлоне

Ирландия     53°25′54″N   7°55′22″W
темп.,
°C
ветер,
м/с
пор.,
м/с
влажн.,
%
обл.,
%
осадки,
мм/ч
давл.,
гПа
погр.,
м
25 января, пн
пн2500:00−2зюз23910 0.0 100639
03:00−3зюз23920 0.0 100835
06:00−3юз23910 0.0 100940
09:00−2ююз349247 0.0 101078
12:00+3юз378872 0.0 1011359
15:00+4ююз3889100 0.0 1011416
18:00+1ю379296 0.0 1012137
21:00+1ю379385 0.0 1013163
26 января, вт
вт2600:00+2ююв4119192 0.0 1011371
03:00+3ююв61495100 1.8 1010700
06:00+5ююв61497100 6.6 1006588
09:00+6ююв41197100 1.4 1004373
12:00+7ююз4998100 1.4 1006321
15:00+10з51094100 0.3 1006591
18:00+7зюз3896100 0.3 1009197
21:00+5юз3898100 0.0 1010166
27 января, ср
ср2700:00+7юз3999100 0.9 1010311
03:00+7ю3599100 2.2 1009148
06:00+8ююз3899100 3.3 1009338
09:00+9ююз3799100 0.0 1009239
12:00+10ююз2497100 0.0 1009260
15:00+9юв4799100 3.1 1007316
18:00+9юв51098100 9.7 1004361
21:00+10ю51297100 2.2 1001530
28 января, чт
чт2800:00+11ююз61396100 6.1 998762
03:00+10зюз61392100 0.4 999903
06:00+9зюз4129299 0.6 1000678
09:00+6юз379837 0.0 1001182
12:00+9ююв489158 0.0 1000405
15:00+10ююв51196100 4.6 996628
18:00+8зюз61587100 6.4 9961185
21:00+6юз4149554 0.1 996853
29 января, пт
пт2900:00+8юз6149076 0.3 9961100
03:00+8юз6139088 0.2 995918
06:00+6юз5139288 0.3 9951052
09:00+7зюз101891100 2.8 9961051
12:00+8з101788100 5.0 9981170
15:00+8з91586100 0.2 10001076
18:00+8зсз5119199 0.6 1003606
21:00+7з3695100 0.0 1005256